Weather reports worldwide

Advertisment
Leconfield, United Kingdom (3382): temperature & dewpoint: 23.07.2017 12:00:00 - 29.07.2017 12:00:00 (BST)Leconfield, United Kingdom (3382): temperature -20cm & temperature -100cm: 23.07.2017 12:00:00 - 29.07.2017 12:00:00 (BST)Leconfield, United Kingdom (3382): wind speed & gusts: 23.07.2017 12:00:00 - 29.07.2017 12:00:00 (BST)Leconfield, United Kingdom (3382): wind direction: 23.07.2017 12:00:00 - 29.07.2017 12:00:00 (BST)Leconfield, United Kingdom (3382): reduced air pressure: 23.07.2017 12:00:00 - 29.07.2017 12:00:00 (BST)Leconfield, United Kingdom (3382): visibility: 23.07.2017 12:00:00 - 29.07.2017 12:00:00 (BST)Leconfield, United Kingdom (3382): sunshine duration: 23.07.2017 12:00:00 - 29.07.2017 12:00:00 (BST)Leconfield, United Kingdom (3382): precipitation: 23.07.2017 12:00:00 - 29.07.2017 12:00:00 (BST)
Date & Time tt [°C] td [°C] tt -20cm [°C] tt -100cm [°C] ff [km/h] ff [kn] fx [km/h] fx [kn] dd ppp [hPa] vv [km] sd [min] rr [mm]
29.07.2017 12:00:00 18,6 10,3 - - 21 11 - - WSW 1005,9 10 0 0,0
29.07.2017 11:00:00 17,3 10,6 - - 21 11 - - SW 1006,0 10 0 0,0
29.07.2017 10:00:00 17,6 12,3 16,7 15,7 16 9 - - WSW 1005,6 10 0 0,0
29.07.2017 09:00:00 16,1 11,4 - - 22 12 - - WSW 1005,1 10 0 0,0
29.07.2017 08:00:00 14,7 11,9 - - 16 9 - - WSW 1004,8 10 0 0,0
29.07.2017 07:00:00 14,1 12,2 - - 15 8 - - WSW 1004,2 10 0 0,0
29.07.2017 06:00:00 13,0 11,7 - - 13 7 - - WSW 1003,8 10 0 0,0
29.07.2017 05:00:00 12,8 11,9 - - 13 7 - - WSW 1003,0 10 0 0,0
29.07.2017 04:00:00 13,0 12,0 - - 9 5 - - WSW 1002,6 10 0 0,0
29.07.2017 03:00:00 14,2 12,9 - - 16 9 - - W 1001,9 10 0 0,0
29.07.2017 02:00:00 15,4 14,2 - - 15 8 - - W 1001,2 10 0 0,0
29.07.2017 01:00:00 16,4 15,3 - - 21 11 - - SW 1000,1 10 - 0,0
29.07.2017 00:00:00 15,9 15,2 - - 18 10 - - SSW 999,7 10 0 0,4
28.07.2017 23:00:00 15,7 15,0 - - 16 9 - - S 1000,1 10 0 0,4
28.07.2017 22:00:00 15,4 15,0 - - 13 7 - - S 1001,0 8 0 2,6
28.07.2017 21:00:00 15,3 14,6 - - 15 8 - - S 1001,5 4,8 0 2,0
28.07.2017 20:00:00 15,8 14,9 - - 18 10 - - SSW 1002,2 10 0 1,2
28.07.2017 19:00:00 16,1 14,8 - - 22 12 - - SSW 1002,5 9 0 1,4
28.07.2017 18:00:00 16,2 15,4 - - 16 9 - - SW 1003,0 10 0 1,8
28.07.2017 17:00:00 16,3 15,4 - - 16 9 - - SSW 1003,4 6 0 0,6
28.07.2017 16:00:00 17,0 14,1 - - 29 16 54 29 SSW 1003,7 10 0 0,0
28.07.2017 15:00:00 18,0 13,0 - - 34 18 52 28 SW 1003,5 10 0 0,0
28.07.2017 14:00:00 20,3 11,9 - - 28 15 - - SW 1003,2 10 12 0,0
28.07.2017 13:00:00 20,3 9,3 - - 26 14 - - WSW 1003,4 10 54 0,0
28.07.2017 12:00:00 18,2 9,1 - - 24 13 50 27 WSW 1003,6 10 30 0,0
28.07.2017 11:00:00 18,1 10,1 - - 26 14 - - WSW 1003,4 10 42 0,0
28.07.2017 10:00:00 17,0 9,9 16,7 15,7 24 13 50 27 WSW 1003,4 10 42 0,0
28.07.2017 09:00:00 15,5 10,1 - - 26 14 48 26 WSW 1002,9 10 30 0,0
28.07.2017 08:00:00 14,5 10,4 - - 26 14 - - SW 1002,7 10 18 0,0
28.07.2017 07:00:00 13,7 10,3 - - 22 12 - - SW 1002,5 10 24 0,0
28.07.2017 06:00:00 12,4 10,2 - - 16 9 - - SSW 1002,4 10 6 0,0
28.07.2017 05:00:00 12,9 10,1 - - 15 8 - - SSW 1002,3 10 0 0,0
28.07.2017 04:00:00 13,8 10,5 - - 16 9 - - SW 1002,0 10 0 0,0
28.07.2017 03:00:00 13,7 10,7 - - 13 7 - - SW 1002,3 10 0 0,0
28.07.2017 02:00:00 13,9 10,6 - - 18 10 - - SW 1002,2 16 0 0,0
28.07.2017 01:00:00 14,3 10,7 - - 16 9 - - SW 1001,8 10 - 0,0
28.07.2017 00:00:00 14,0 11,8 - - 11 6 - - SSW 1002,2 10 0 0,0
27.07.2017 23:00:00 13,7 11,3 - - 5 3 - - S 1002,2 10 0 0,0
27.07.2017 22:00:00 14,9 11,6 - - 5 3 - - S 1002,1 10 0 0,0
27.07.2017 21:00:00 15,5 10,4 - - 9 5 - - SSW 1001,7 10 12 0,0
27.07.2017 20:00:00 17,9 10,3 - - 11 6 - - W 1001,6 10 48 0,0
27.07.2017 19:00:00 18,1 9,7 - - 21 11 - - W 1001,3 10 54 0,0
27.07.2017 18:00:00 18,4 9,8 - - 18 10 - - WSW 1001,5 10 30 0,0
27.07.2017 17:00:00 17,7 10,4 - - 18 10 - - W 1001,8 10 0 0,0
27.07.2017 16:00:00 17,2 10,8 - - 21 11 - - WSW 1002,0 10 18 0,0
27.07.2017 15:00:00 17,4 10,6 - - 24 13 - - SW 1002,0 10 24 0,2
27.07.2017 14:00:00 16,4 11,3 - - 24 13 - - SW 1002,3 10 12 0,0
27.07.2017 13:00:00 14,7 10,6 - - 29 16 - - SW 1002,8 10 - 0,2
27.07.2017 12:00:00 16,1 10,1 - - 24 13 - - SW 1002,6 10 - 0,0
27.07.2017 11:00:00 15,4 9,8 - - 18 10 - - SW 1002,8 10 - 0,0
27.07.2017 10:00:00 15,5 10,2 16,7 15,7 18 10 - - WSW 1003,2 10 - 0,0
27.07.2017 09:00:00 13,5 9,7 - - 22 12 - - SW 1003,6 10 - 0,0
27.07.2017 08:00:00 13,0 9,7 - - 18 10 - - WSW 1003,3 10 - 0,0
27.07.2017 07:00:00 12,8 9,9 - - 16 9 - - SW 1003,0 10 - 0,0
27.07.2017 06:00:00 11,2 9,7 - - 11 6 - - SW 1002,8 10 - 0,0
27.07.2017 05:00:00 10,7 9,4 - - 11 6 - - WSW 1002,7 10 - 0,0
27.07.2017 04:00:00 10,9 9,4 - - 15 8 - - SW 1002,5 10 - 0,0
27.07.2017 03:00:00 11,1 9,5 - - 16 9 - - SW 1002,2 10 - 0,0
27.07.2017 02:00:00 11,4 9,4 - - 9 5 - - WSW 1002,7 10 - 0,0
27.07.2017 01:00:00 12,2 9,2 - - 13 7 - - WSW 1002,1 10 - 0,0
27.07.2017 00:00:00 13,4 9,5 - - 26 14 50 27 W 1002,4 10 - 0,0
26.07.2017 23:00:00 12,9 10,1 - - 5 3 - - SSW 1001,4 10 - 0,0
26.07.2017 22:00:00 14,7 10,2 - - 9 5 - - WSW 1001,2 10 - 0,0
26.07.2017 21:00:00 16,8 12,4 - - 9 5 - - WSW 1000,5 10 - 0,0
26.07.2017 20:00:00 17,7 13,9 - - 15 8 - - WSW 1000,0 10 - 0,0
26.07.2017 19:00:00 18,1 14,5 - - 18 10 - - W 999,7 10 - 0,0
26.07.2017 18:00:00 18,6 16,9 - - 16 9 - - W 999,4 10 - 0,6
26.07.2017 17:00:00 21,2 17,3 - - 28 15 46 25 S 998,9 10 - 0,0
26.07.2017 16:00:00 20,8 17,9 - - 26 14 50 27 SSW 999,8 10 - 0,0
26.07.2017 15:00:00 19,2 18,0 - - 24 13 - - S 1000,5 10 - 0,6
26.07.2017 14:00:00 17,5 16,9 - - 18 10 - - SSW 1001,7 3,5 - 1,6
26.07.2017 13:00:00 17,2 16,3 - - 18 10 - - S 1002,1 10 - 1,2
26.07.2017 12:00:00 17,0 15,0 - - 16 9 - - S 1003,0 7 - 0,2
26.07.2017 11:00:00 17,6 14,1 - - 13 7 - - S 1003,7 10 - 0,0
26.07.2017 10:00:00 16,2 14,1 16,7 15,7 13 7 - - S 1004,5 10 - 0,0
26.07.2017 09:00:00 15,6 14,0 - - 13 7 - - SSE 1005,3 10 - 0,0
26.07.2017 08:00:00 15,2 13,8 - - 13 7 - - SSE 1006,3 10 - 0,0
26.07.2017 07:00:00 14,6 14,3 - - 13 7 - - SSE 1006,9 10 - 0,0
26.07.2017 06:00:00 12,5 12,4 - - 8 4 - - SE 1007,5 10 - 0,0
26.07.2017 05:00:00 11,0 11,0 - - 2 1 - - SE 1008,5 3,4 - 0,0
26.07.2017 04:00:00 10,9 10,8 - - 5 3 - - E 1009,3 0,1 - 0,0
26.07.2017 03:00:00 11,7 11,6 - - 4 2 - - E 1010,1 0,1 - 0,0
26.07.2017 02:00:00 11,8 11,6 - - 8 4 - - SE 1011,0 0,2 - 0,0
26.07.2017 01:00:00 11,2 11,0 - - 0 0 - - N 1012,1 0,6 - 0,0
26.07.2017 00:00:00 10,9 10,5 - - 2 1 - - SSE 1012,6 4,0 - 0,0
25.07.2017 23:00:00 11,3 10,8 - - 5 3 - - E 1013,1 6 - 0,0
25.07.2017 22:00:00 12,2 11,0 - - 2 1 - - SSE 1013,1 10 - 0,0
25.07.2017 21:00:00 13,9 11,8 - - 8 4 - - E 1013,2 10 - 0,0
25.07.2017 20:00:00 14,9 11,8 - - 13 7 - - E 1013,7 10 - 0,0
25.07.2017 19:00:00 16,5 12,5 - - 13 7 - - ENE 1014,0 10 - 0,0
25.07.2017 18:00:00 17,7 13,3 - - 9 5 - - ENE 1014,4 10 - 0,0
25.07.2017 17:00:00 17,9 12,2 - - 4 2 - - NNE 1014,7 10 - 0,0
25.07.2017 16:00:00 17,1 12,4 - - 8 4 - - NE 1015,0 10 - 0,0
25.07.2017 15:00:00 17,0 12,7 - - 8 4 - - NNE 1015,2 10 - 0,0
25.07.2017 14:00:00 16,8 12,6 - - 8 4 - - NNE 1015,7 10 - 0,0
25.07.2017 13:00:00 17,0 12,1 - - 8 4 - - N 1015,7 10 - 0,0
25.07.2017 12:00:00 16,5 11,9 - - 8 4 - - NNE 1015,9 10 - 0,0
25.07.2017 11:00:00 16,3 12,2 - - 11 6 - - N 1016,1 10 6 0,0
25.07.2017 10:00:00 16,2 12,3 16,7 15,9 13 7 - - NW 1016,4 10 12 0,0
25.07.2017 09:00:00 14,7 11,6 - - 11 6 - - NW 1016,7 10 0 0,0
25.07.2017 08:00:00 14,0 11,4 - - 13 7 - - NW 1016,7 10 0 0,0
25.07.2017 07:00:00 13,5 11,1 - - 11 6 - - NW 1016,6 10 0 0,0
25.07.2017 06:00:00 13,2 11,0 - - 9 5 - - WNW 1016,7 10 0 0,0
25.07.2017 05:00:00 13,0 11,1 - - 9 5 - - WNW 1016,6 10 0 0,0
25.07.2017 04:00:00 13,0 11,3 - - 8 4 - - NNW 1016,7 10 0 0,0
25.07.2017 03:00:00 13,1 11,2 - - 11 6 - - NW 1016,9 10 0 0,0
25.07.2017 02:00:00 13,2 11,5 - - 15 8 - - NNW 1017,1 10 0 0,0
25.07.2017 01:00:00 13,5 12,3 - - 15 8 - - NNW 1017,3 10 - 0,0
25.07.2017 00:00:00 13,6 12,6 - - 16 9 - - NNW 1017,2 10 0 0,0
24.07.2017 23:00:00 13,6 12,5 - - 16 9 - - NNW 1017,2 9 0 0,0
24.07.2017 22:00:00 13,8 12,3 - - 18 10 - - NNW 1017,0 10 0 0,0
24.07.2017 21:00:00 13,9 12,2 - - 21 11 - - NNW 1016,8 10 0 0,0
24.07.2017 20:00:00 14,1 12,1 - - 16 9 - - NW 1016,6 10 0 0,0
24.07.2017 19:00:00 14,2 12,1 - - 18 10 - - NNW 1016,3 10 0 0,0
24.07.2017 18:00:00 14,4 12,2 - - 18 10 - - NNW 1016,1 10 0 0,0
24.07.2017 17:00:00 14,9 12,1 - - 24 13 - - NNW 1015,8 10 0 0,0
24.07.2017 16:00:00 14,7 12,1 - - 26 14 - - NNW 1015,6 10 0 0,0
24.07.2017 15:00:00 14,7 12,1 - - 24 13 - - NNW 1015,4 10 0 0,0
24.07.2017 14:00:00 14,1 12,3 - - 24 13 - - NNW 1014,9 10 0 0,0
24.07.2017 13:00:00 14,0 12,6 - - 22 12 - - NNW 1014,4 10 0 0,2
24.07.2017 12:00:00 13,5 12,5 - - 18 10 - - NNW 1014,2 3,4 0 0,0
24.07.2017 11:00:00 14,0 12,8 - - 22 12 - - NNW 1013,7 10 0 0,0
24.07.2017 10:00:00 14,0 13,0 17,5 15,9 18 10 - - NNW 1013,1 4,4 0 0,0
24.07.2017 09:00:00 14,2 13,0 - - 18 10 - - NNW 1012,4 10 0 0,0
24.07.2017 08:00:00 14,2 13,0 - - 22 12 - - N 1011,7 10 0 0,0
24.07.2017 07:00:00 14,0 12,9 - - 22 12 - - NNW 1011,2 10 0 0,0
24.07.2017 06:00:00 13,7 12,9 - - 21 11 - - NNW 1011,2 10 0 0,2
24.07.2017 05:00:00 14,0 13,3 - - 22 12 - - NNW 1010,9 5 0 0,0
24.07.2017 04:00:00 14,4 13,8 - - 16 9 - - N 1010,6 10 0 0,2
24.07.2017 03:00:00 14,3 13,8 - - 21 11 - - N 1010,3 6 0 0,0
24.07.2017 02:00:00 14,8 14,0 - - 15 8 - - N 1009,9 10 0 0,0
24.07.2017 01:00:00 15,2 14,5 - - 15 8 - - N 1009,3 10 - 0,2
24.07.2017 00:00:00 14,9 14,6 - - 8 4 - - NNW 1009,2 10 0 0,0
23.07.2017 23:00:00 14,6 14,2 - - 2 1 - - W 1009,0 10 0 1,8
23.07.2017 22:00:00 14,4 13,9 - - 5 3 - - SW 1009,1 5 0 1,8
23.07.2017 21:00:00 14,8 14,0 - - 8 4 - - WSW 1009,3 10 0 0,2
23.07.2017 20:00:00 15,3 14,4 - - 5 3 - - W 1009,4 10 0 0,2
23.07.2017 19:00:00 15,4 14,2 - - 5 3 - - S 1009,7 10 0 0,2
23.07.2017 18:00:00 16,2 14,7 - - 8 4 - - SE 1009,8 10 0 0,0
23.07.2017 17:00:00 16,0 13,7 - - 8 4 - - E 1009,9 9 0 0,2
23.07.2017 16:00:00 15,8 14,2 - - 5 3 - - S 1009,9 10 0 1,8
23.07.2017 15:00:00 15,6 14,0 - - 5 3 - - ENE 1010,0 5 18 3,4
23.07.2017 14:00:00 16,7 14,6 - - 9 5 - - W 1010,1 10 0 0,6
23.07.2017 13:00:00 15,6 13,3 - - 15 8 - - NW 1010,0 10 0 0,0
23.07.2017 12:00:00 16,8 12,8 - - 11 6 - - NW 1010,0 10 0 0,0

tt = temperature
td = dewpoint
tt -20cm = temperature -20cm
tt -100cm = temperature -100cm
ff = wind speed
fx = gusts
dd = wind direction
ppp = reduced air pressure
vv = visibility
sd = sunshine duration
rr = precipitation

Next stations